Regional Weather Roundup
Issued by NWS Jackson, KY

Home | Current Version | Previous Version | Graphics & Text | Print | Product List | Glossary On
Versions: 1 2 3 4 5 6 7 8 9 10 11 12 13 14 15 16 17 18 19 20 21 22 23 24 25 26 27
000
ASUS43 KJKL 271510
RWRJKL

EAST KENTUCKY HOURLY WEATHER ROUNDUP
NATIONAL WEATHER SERVICE JACKSON KY
1100 AM EDT TUE JUN 27 2017

NOTE: "FAIR" INDICATES FEW OR NO CLOUDS BELOW 12,000 FEET WITH
NO SIGNIFICANT WEATHER AND/OR OBSTRUCTIONS TO VISIBILITY.

* THESE REPORTS ARE NOT UNDER NWS QUALITY CONTROL AND MAY NOT
  REPORT WEATHER SUCH AS PRECIPITATION AND FOG.

KYZ079-080-083-085-087-088-110-112-115-119-120-271600
...EASTERN KENTUCKY...

CITY           SKY/WX    TMP DP  RH WIND       PRES   REMARKS
JACKSON        SUNNY     68  53  58 VRB3      30.17S
LONDON         SUNNY     70  47  43 NW5       30.17F
SOMERSET*      SUNNY     68  50  52 CALM      30.18S
MONTICELLO*    SUNNY     71  53  52 VRB5      30.19S
WILLIAMSBURG*  SUNNY     68  50  52 NE6       30.17S
MIDDLESBORO*   PTSUNNY   70  53  53 NE5       30.17S
HARLAN APT*    SUNNY     70  52  52 CALM      30.16F
PIKE CO APT*     N/A     66  52  61 W7        30.16S
BIG SANDY APT* SUNNY     67  52  59 W5        30.16S
MOREHEAD APT*  HAZE      68  52  56 NW7       30.18S VSB 3/4
ASHLAND*       SUNNY     70  57  64 NW3       30.12F
$$

KYZ035-036-041-042-044-050-067-078-099-271600
...CENTRAL KENTUCKY...

CITY           SKY/WX    TMP DP  RH WIND       PRES   REMARKS
MT STERLING*   SUNNY     68  54  60 N3        30.18S
FLEMING/MASON* MOSUNNY   66  51  58 N8        30.17F
DANVILLE*      SUNNY     70  50  49 CALM      30.19S
LEXINGTON      SUNNY     70  53  54 NW8       30.17F
FRANKFORT      SUNNY     68  54  60 W6        30.16S
LOUISVILLE     MOSUNNY   72  53  51 VRB3      30.16F
LEBANON*         N/A    N/A N/A N/A MISG        N/A
GLASGOW*       SUNNY     72  51  46 N8        30.16F
BOWLING GREEN  SUNNY     73  53  49 NE8       30.16F
$$

KYZ091>093-OHZ055-061-077-WVZ005-015-034-035-042-271600
...SOUTHERN OHIO/WEST VIRGINIA...

CITY           SKY/WX    TMP DP  RH WIND       PRES   REMARKS
COVINGTON      MOSUNNY   66  50  56 NW9       30.16S
COLUMBUS       PTSUNNY   65  50  58 W9G16     30.13S
DAYTON         MOSUNNY   65  49  56 NW14      30.16S
WILMINGTON     MOSUNNY   65  50  58 CALM      30.15S
HUNTINGTON     SUNNY     69  53  56 NW6       30.14S
CHARLESTON     MOSUNNY   68  51  54 W12       30.13S
PINEVILLE*     SUNNY     69  50  50 MISG      30.20F
BECKLEY        MOSUNNY   65  47  52 NW15      30.16S
BLUEFIELD      SUNNY     61  44  53 NW10G21   30.18S
LOGAN CO APT*    N/A     64  52  63 CALM      30.15S
$$

VAZ002-007-008-TNZ017-027-036-066-071-271600
...SOUTHWEST VIRGINIA/EAST TENNESSEE...

CITY           SKY/WX    TMP DP  RH WIND       PRES   REMARKS
WISE*          SUNNY     64  46  52 CALM      30.21R
JONESVILLE*      N/A     72  52  49 N6        30.17F
ABINGDON*      SUNNY     68  48  48 N7        30.17S
BRISTOL        MOSUNNY   70  49  47 CALM      30.16S
MORRISTOWN*    SUNNY     70  54  56 N7        30.15S
SEVIERVILLE*   SUNNY     72  54  53 VRB3      30.14S
KNOXVILLE      PTSUNNY   72  55  55 N6        30.15R
LAFOLLETTE*    SUNNY     70  54  56 CALM      30.20R
OAK RIDGE      CLOUDY    70  54  56 VRB3      30.17R
CROSSVILLE     CLOUDY    64  53  67 N5        30.20R
NASHVILLE      CLOUDY    72  55  55 CALM      30.16F
$$

...KEY TO REMARKS...
VSB - VISIBILITY IN MILES
WCI - WIND CHILL INDEX
HX  - HEAT INDEX

$$




USA.gov is the U.S. government's official web portal to all federal, state and local government web resources and services.